STARLINK-6127, 57135

Orbit data source: Space-Track

STARLINK-6127, 57135 is a payload satellite owned by SpaceX/Seattle (US) in LEO that was launched on Fri, 23 Jun 2023 UTC via an FALCON 9 launch vehicle from the Air Force Eastern Test Range (AFETR). Payload-class satellites include a variety of spacecraft equipped with specific instruments for various scientific and technological missions. These include communications satellites like Starlink; space stations such as the ISS; scientific satellites like the Hubble; Earth observation satellites from companies like Planet Labs, Umbra, and HawkEye 360; GPS; miniature CubeSats for education and research; and military/defense satellites.

Loading next visibility...
Identifier
57135, 2023-090AL
Orbit
LEO
Country
Flag of USUS
Related business
Manufacturer
SpaceX/Seattle
Mission
Operational Commercial Communications
Bus & Motor
STARLINK, Unknown motor
Mass
305 kg wet, ~290 kg dry
Launch date (UTC)
2023-06-23 (3 years ago)
Launch vehicle
FALCON 9
Launch site
Air Force Eastern Test Range (AFETR)
Object type
Payload
Rocket body
Debris
Shape & HBR
Box + 1 Pan, 10.1 m
Radar Cross Section
11.087 m², Large (>1 m²)

Expand to show TLE details & history
Last TLE update: 2 days ago

TLE from 2 days ago
0 STARLINK-6127
1 57135U 23090AL  26171.33216485 -.00002749  00000-0 -90484-4 0  9997
2 57135  43.0008  43.4651 0000658 322.4804  37.6002 15.27553232166054
Epoch: 2026-06-20T07:58Z
TLE epoch observation values (Epoch: 2026-06-20T07:58:19.043Z)
Latitude
0.00003°
Longitude
15.33747°
Altitude
482.547 km
Speed
7.626 km/s
True Right ascension
02h 53m 51s
True Declination
0° 00' 00"
Sunlit
Object was in daylight at epoch
Visualization orbit readout
Latitude
Unknown
Longitude
Unknown
Altitude
Unknown
Speed
Unknown
Apparent Right ascension
Unknown
Apparent Declination
Unknown
Sunlit
N/A
Visualization observer readout
Local Sidereal Time
21:47:25
Azimuth
Unknown
Elevation
Unknown
Doppler factor
Unknown
Orbital elements
Apogee altitude
485.526 km
Perigee altitude
484.623 km
Semi-major axis
6,863.211 km
Eccentricity
0.00007
Inclination
43.0008°
RAAN
43.4651°
Arg. of periapsis
322.4804°
True anomaly
37.6048°
Mean anomaly
37.6002°
Eccentric anomaly
37.6025°
Mean motion
3.81726 °/min
Orbital period
94.31 mins
BSTAR
-0.000090484
Loading maneuver chart data...
Computing Atmospheric mass density...

Documentation

Showing up to 5 results
|